| time (UTC) | temp C | wind direction | speed KPH | gust KPH | rain 1hr cm | rain 24hr cm | rain mn cm | humidity % | barometer mb |
| 20260507130820 | 6 | 296 | 8.0 | 19.3 | 0.00 | 0.00 | 0.00 | 85 | 1008.6 |
| 20260507125820 | 6 | 236 | 4.8 | 12.9 | 0.00 | 0.00 | 0.00 | 88 | 1008.7 |
| 20260507125319 | 6 | 218 | 6.4 | 16.1 | 0.00 | 0.00 | 0.00 | 85 | 1008.7 |
| 20260507124819 | 6 | 268 | 4.8 | 16.1 | 0.00 | 0.00 | 0.00 | 88 | 1008.6 |
| 20260507123819 | 6 | 272 | 3.2 | 8.0 | 0.00 | 0.00 | 0.00 | 95 | 1008.4 |
| 20260507122820 | 6 | 316 | 1.6 | 3.2 | 0.00 | 0.00 | 0.00 | 98 | 1008.5 |
| 20260507122320 | 5 | 288 | 1.6 | 3.2 | 0.00 | 0.00 | 0.00 | 98 | 1008.5 |
| 20260507120820 | 5 | 27 | 0.0 | 14.5 | 0.00 | 0.00 | 0.00 | 99 | 1008.3 |
| 20260507115820 | 5 | 333 | 0.0 | 1.6 | 0.00 | 0.00 | 0.00 | 99 | 1008.3 |
| 20260507114821 | 5 | 341 | 1.6 | 3.2 | 0.00 | 0.00 | 0.00 | 99 | 1008.2 |
| 20260507114320 | 5 | 305 | 1.6 | 3.2 | 0.00 | 0.00 | 0.00 | 99 | 1008.3 |
| 20260507113819 | 5 | 42 | 0.0 | 3.2 | 0.00 | 0.00 | 0.00 | 99 | 1008.2 |
| 20260507113319 | 5 | 315 | 1.6 | 3.2 | 0.00 | 0.00 | 0.00 | 99 | 1008.2 |
| 20260507112820 | 5 | 319 | 0.0 | 1.6 | 0.00 | 0.00 | 0.00 | 99 | 1008.2 |
| 20260507111819 | 5 | 319 | 0.0 | 1.6 | 0.00 | 0.00 | 0.00 | 99 | 1008.2 |
| 20260507111320 | 5 | 319 | 0.0 | 1.6 | 0.00 | 0.00 | 0.00 | 99 | 1008.2 |
| 20260507105820 | 4 | 319 | 0.0 | 1.6 | 0.00 | 0.00 | 0.00 | 99 | 1008.1 |
| 20260507105320 | 4 | 319 | 0.0 | 1.6 | 0.00 | 0.00 | 0.00 | 99 | 1008.0 |
| 20260507104320 | 5 | 94 | 0.0 | 3.2 | 0.00 | 0.00 | 0.00 | 98 | 1008.1 |
| 20260507103819 | 5 | 186 | 1.6 | 3.2 | 0.00 | 0.00 | 0.00 | 98 | 1008.1 |
| 20260507103320 | 4 | 2 | 0.0 | 1.6 | 0.00 | 0.00 | 0.00 | 99 | 1008.1 |
| 20260507102819 | 5 | 339 | 0.0 | 4.8 | 0.00 | 0.00 | 0.00 | 98 | 1008.0 |
| 20260507102320 | 5 | 126 | 3.2 | 4.8 | 0.00 | 0.00 | 0.00 | 98 | 1008.1 |
| 20260507101819 | 4 | 113 | 1.6 | 3.2 | 0.00 | 0.00 | 0.00 | 99 | 1008.1 |
| 20260507101319 | 5 | 5 | 0.0 | 0.0 | 0.00 | 0.00 | 0.00 | 99 | 1008.0 |
| 20260507100820 | 5 | 7 | 0.0 | 4.8 | 0.00 | 0.00 | 0.00 | 98 | 1008.0 |
| 20260507100320 | 5 | 166 | 3.2 | 8.0 | 0.00 | 0.00 | 0.00 | 97 | 1007.9 |
| 20260507095320 | 4 | 164 | 3.2 | 4.8 | 0.00 | 0.00 | 0.00 | 99 | 1007.9 |
| 20260507094821 | 4 | 121 | 3.2 | 4.8 | 0.00 | 0.00 | 0.00 | 99 | 1007.8 |
| 20260507094320 | 4 | 116 | 3.2 | 4.8 | 0.00 | 0.00 | 0.00 | 99 | 1007.7 |
| 20260507093820 | 4 | 132 | 4.8 | 8.0 | 0.00 | 0.00 | 0.00 | 99 | 1008.1 |
| 20260507093320 | 4 | 124 | 4.8 | 8.0 | 0.00 | 0.00 | 0.00 | 99 | 1008.4 |
| 20260507092321 | 3 | 130 | 1.6 | 1.6 | 0.00 | 0.00 | 0.00 | 99 | 1008.1 |
| 20260507091820 | 3 | 86 | 1.6 | 3.2 | 0.00 | 0.00 | 0.00 | 99 | 1008.2 |
| 20260507091322 | 3 | 230 | 0.0 | 22.5 | 0.00 | 0.00 | 0.00 | 99 | 1008.0 |